Location: Unspecified
(0.0000°N, 0.0000°E)
Time: 02:06:52
(UTC+00:00)

Vanguard 2 Rocket - Visible Passes

Search period start: 26 May 2019 00:00
Search period end: 05 June 2019 00:00
Orbit: 555 x 3326 km, 32.9° (Epoch: 25 May)

Date Brightness Start Highest point End Pass type
(mag) Time Alt. Az. Time Alt. Az. Time Alt. Az.
26 May 9.4 02:16:00 78° NNW 02:16:00 78° NNW 02:35:12 10° NE visible
26 May 10.2 04:21:47 18° W 04:35:03 35° NNW 04:49:58 10° NNE visible
27 May 9.8 01:19:27 56° ENE 01:19:27 56° ENE 01:33:34 10° NE visible
27 May 9.9 03:25:13 37° WNW 03:32:24 47° NNW 03:49:51 10° NE visible
28 May 10.4 00:22:50 31° ENE 00:22:50 31° ENE 00:31:04 10° ENE visible
28 May 9.5 02:28:36 59° NW 02:29:44 60° NW 02:49:08 10° NE visible
28 May 10.5 04:34:51 10° WNW 04:50:18 26° NNW 05:03:40 10° NNE visible
28 May 10.9 23:26:10 13° ENE 23:26:10 13° ENE 23:27:34 10° ENE visible
29 May 9.6 01:31:56 61° NNE 01:31:56 61° NNE 01:47:46 10° NE visible
29 May 10.2 03:37:41 25° WNW 03:47:21 35° NNW 04:03:32 10° NNE visible
30 May 10.1 00:35:12 39° ENE 00:35:12 39° ENE 00:45:41 10° NE visible
30 May 9.8 02:40:57 43° NW 02:44:27 45° NNW 03:02:53 10° NE visible
30 May 10.7 04:53:00 10° WNW 05:06:12 21° NNW 05:17:39 10° NNE visible
30 May 10.7 23:38:25 20° ENE 23:38:25 20° ENE 23:42:50 10° ENE visible
31 May 9.7 01:44:10 55° N 01:44:10 55° N 02:01:39 10° NE visible
31 May 10.5 03:49:54 14° WNW 04:02:52 27° NNW 04:17:21 10° NNE visible
01 Jun 9.9 00:47:19 46° NE 00:47:19 46° NE 00:59:51 10° NE visible
01 Jun 10.2 02:53:03 29° WNW 02:59:37 34° NNW 03:16:36 10° NNE visible
01 Jun 10.9 05:11:29 10° NW 05:22:40 17° NNW 05:32:22 10° NNE visible
01 Jun 10.4 23:50:25 27° NE 23:50:25 27° NE 23:57:24 10° NE visible
02 Jun 9.9 01:56:09 43° NNW 01:56:38 43° NNW 02:15:22 10° NE visible
02 Jun 10.8 04:05:29 10° WNW 04:19:00 21° NNW 04:31:36 10° NNE visible
02 Jun 10.9 22:53:28 12° ENE 22:53:28 12° ENE 22:54:21 10° ENE visible
03 Jun 9.9 00:59:12 46° N 00:59:12 46° N 01:13:40 10° NE visible
03 Jun 10.5 03:04:56 17° WNW 03:15:23 26° NNW 03:30:31 10° NNE visible
03 Jun 11.0 05:29:06 10° NW 05:39:29 16° N 05:48:20 10° NNE visible
04 Jun 10.2 00:02:12 34° NE 00:02:12 34° NE 00:11:30 10° NE visible
04 Jun 10.2 02:07:55 30° NW 02:12:01 32° NNW 02:29:05 10° NNE visible
04 Jun 10.9 04:23:36 10° NW 04:35:41 18° N 04:46:43 10° NNE visible
04 Jun 10.6 23:05:08 19° NE 23:05:08 19° NE 23:08:52 10° NE visible
